Regional Weather Roundup
Issued by NWS

Home | Current Version | Previous Version | Graphics & Text | Print | Product List | Glossary On
Versions: 1 2 3 4 5 6 7 8 9 10 11 12 13 14 15 16 17 18 19 20 21 22 23 24 25 26 27 28 29 30 31 32 33 34 35 36 37 38 39 40 41 42 43 44 45 46 47 48 49 50
000
ASUS45 KSLC 300010
RWRUT

UTAH REGIONAL WEATHER ROUNDUP
NATIONAL WEATHER SERVICE SALT LAKE CITY UT
600 PM MDT FRI APR 29 2016

UTZ001>011-023>025-300100-

NORTHERN UTAH

CITY           SKY/WX    TMP DP  RH WIND       PRES   REMARKS
BRIGHAM CITY   SUNNY     56  33  42 W5        29.82S
HILL AFB       PTSUNNY   52  37  56 W5        29.82S
LOGAN          MOSUNNY   55  34  45 NW5       29.80F
OGDEN          SUNNY     55  35  47 W8        29.81F
PROVO AIRPORT  PTSUNNY   52  39  62 SW17      29.83S
SALT LAKE CITY PTSUNNY   57  35  43 W6        29.82S
VERNAL         CLOUDY    48  36  63 CALM      29.81S
WENDOVER       PTSUNNY   52  39  62 SW14      29.83F
HEBER CITY     CLOUDY    52  36  54 SW12      29.81S

$$

UTZ012>022-026-027-300100-

SOUTHERN/CENTRAL UTAH

CITY           SKY/WX    TMP DP  RH WIND       PRES   REMARKS
BLANDING       CLOUDY    46  37  70 NW20G35   29.90R
BRYCE CANYON   PTSUNNY   44  32  62 W18G24    29.89R
CEDAR CITY     CLOUDY    52  35  52 NE7       29.86F
DELTA          PTSUNNY   55  32  41 NW12      29.83S
HANKSVILLE     MOSUNNY   61  36  39 N25G32    29.79R
MILFORD        LGT RAIN  51  40  65 SW22      29.84R
MOAB/CYNLANDS  LGT RAIN  54  39  57 NW10      29.76R
PRICE          MOSUNNY   54  31  41 W12G22    29.78S
ST GEORGE      MOCLDY    61  45  55 E12       29.83F

$$

REGIONAL REPORTS     COLORADO/ARIZONA

CITY           SKY/WX    TMP DP  RH WIND       PRES   REMARKS
CRAIG, CO      CLOUDY    49  34  56 N16       29.79S
GRAND JUNCTION SUNNY     57  35  43 W14       29.74S
RIFLE          LGT RAIN  46  37  71 NW17G25   29.78R
MONTROSE       CLOUDY    51  32  48 W14       29.78F
CORTEZ         CLOUDY    54  30  40 NW9G20    29.80R
PAGE, AZ       CLOUDY    63  32  31 NW8       29.77S
GRAND CANYON   PTSUNNY   52  32  46 SW12G23   29.90R
KINGMAN        MOSUNNY   69  33  26 SW15      29.84F
FLAGSTAFF      CLOUDY    44  36  73 S12       29.92R

$$

REGIONAL REPORTS    NEVADA/IDAHO/WYOMING

CITY           SKY/WX    TMP DP  RH WIND       PRES   REMARKS
LAS VEGAS, NV  PTSUNNY   76  35  22 E13G18    29.70F
ELY            CLOUDY    44  35  70 E6        29.89F
ELKO           CLOUDY    46  37  71 SW5       29.87S
POCATELLO, ID  PTSUNNY   50  39  66 SW6       29.84S
BURLEY         LGT RAIN  49  42  77 NE6       29.82F
EVANSTON, WY   CLOUDY    43  26  51 NE5       29.86S
ROCK SPRINGS   CLOUDY    40  29  64 NE12      29.89R WCI  33
KEMMERER         N/A     39  27  60 E3        29.88S

$$



USA.gov is the U.S. government's official web portal to all federal, state and local government web resources and services.